RADIO ROSTO (RS-15)

Last updated on Thu Oct 30 2025 00:03:10 GMT+0000 (Coordinated Universal Time)

1 23439U 94085A 25302.52428733 -.00000022 00000+0 59375-3 0 9999 2 23439 64.8173 316.2587 0148182 46.9494 314.3729 11.27581762269897
UTC large
Height (km)
Speed (km/s)
/
Latitude / Longitude
Inclination (degrees)
Orbital Period (minutes)
Azimuth
Elevation
Range (km)
Doppler Factor

Next 0 passes for location: London (51.5072 / 0.1276)

Sorry there are no passes over London.